Home > Weather > Theni > Past weeks

Flag for India Past Weather in Theni, Tamil Nadu, India — Yesterday and Last 2 Weeks

Now
81 °F

Scattered clouds.


Feels Like: 85 °F
Forecast: 74 / 92 °F
Wind: 12 mph from South

Location: Coimbatore / Peelamedu

Current Time: Aug 28, 2016 at 7:41:13 PM

Latest Report: Aug 28, 2016 at 7:00 PM


Visibility: 4 mi

Pressure: 29.80 "Hg

Humidity: 74%

Dew Point: 72 °F

Location of TheniLocation

Past Weather in Theni — Graph

°F

Theni Temperature Yesterday

Maximum temperature yesterday: 90 °F (at 3:30 PM)
Minimum temperature yesterday: 73 °F (at 5:30 AM)
Average temperature yesterday: 79 °F

High & Low Weather Summary for the Past Weeks

 TemperatureHumidityPressure
High93 °F (Aug 15, 12:30 PM)94% (Aug 16, 5:30 AM)30.09 "Hg (Aug 16, 5:30 AM)
Low73 °F (Aug 15, 5:00 AM)41% (Aug 15, 12:30 PM)29.68 "Hg (Aug 20, 4:30 PM)
Average81 °F72%29.81 "Hg
* Reported Aug 13 6:30 PM — Aug 28 6:30 PM, Theni, Weather by CustomWeather, © 2016

Note: Actual official high and low records may vary slightly from our data, if they occured in-between our weather recording intervals... More about our weather records

Advertising

Theni Weather History for the Previous 24 Hours

Scroll right to see more
 ConditionsComfort  
Time TempWeatherWind HumidityBarometerVisibility
6:30 PM
Sun, Aug 28
82 °FScattered clouds.14 mph66%29.80 "Hg4 mi
6:00 PM82 °FPartly sunny.16 mph66%29.77 "Hg4 mi
5:30 PM84 °FScattered clouds.16 mph62%29.77 "Hg4 mi
5:00 PM86 °FPartly sunny.16 mph59%29.77 "Hg4 mi
4:30 PM88 °FScattered clouds.12 mph55%29.77 "Hg4 mi
4:00 PM90 °FScattered clouds.12 mph52%29.77 "Hg4 mi
3:30 PM88 °FBroken clouds.12 mph55%29.77 "Hg4 mi
3:00 PM90 °FBroken clouds.14 mph52%29.77 "Hg4 mi
2:30 PM90 °FBroken clouds.14 mph52%29.77 "Hg4 mi
2:00 PM93 °FScattered clouds.16 mph47%29.80 "Hg4 mi
1:30 PM91 °FPassing clouds.12 mph49%29.80 "Hg4 mi
1:00 PM91 °FPassing clouds.13 mph49%29.80 "Hg4 mi
12:30 PM90 °FPassing clouds.12 mph52%29.83 "Hg4 mi
12:00 PM90 °FPassing clouds.15 mph52%29.83 "Hg4 mi
11:30 AM88 °FPassing clouds.14 mph55%29.86 "Hg4 mi
11:00 AM88 °FScattered clouds.12 mph55%29.86 "Hg4 mi
10:30 AM84 °FScattered clouds.7 mph62%29.89 "Hg4 mi
10:00 AM82 °FScattered clouds.8 mph66%29.89 "Hg4 mi
9:30 AM81 °FPartly sunny.9 mph70%29.89 "Hg3 mi
9:00 AM81 °FPartly sunny.8 mph70%29.89 "Hg3 mi
8:30 AM77 °FFog.8 mph79%29.89 "Hg3 mi
8:00 AM77 °FFog.7 mph79%29.86 "Hg3 mi
7:30 AM75 °FFog.3 mph83%29.86 "Hg3 mi
7:00 AM75 °FScattered clouds.7 mph89%29.86 "Hg4 mi
6:30 AM73 °FPassing clouds.8 mph94%29.83 "Hg4 mi
6:00 AM73 °FPassing clouds.7 mph94%29.83 "Hg4 mi
5:30 AM73 °FPassing clouds.6 mph94%29.83 "Hg4 mi
5:00 AM73 °FPassing clouds.7 mph94%29.83 "Hg4 mi
4:30 AM75 °FPassing clouds.5 mph89%29.83 "Hg4 mi
4:00 AM75 °FPassing clouds.5 mph83%29.83 "Hg4 mi
3:30 AM75 °FPassing clouds.6 mph83%29.83 "Hg4 mi
3:00 AM75 °FPassing clouds.9 mph83%29.83 "Hg4 mi
2:30 AM75 °FPassing clouds.7 mph83%29.83 "Hg4 mi
1:30 AM75 °FPassing clouds.5 mph89%29.86 "Hg4 mi
12:30 AM75 °FPassing clouds.8 mph89%29.86 "Hg4 mi
11:30 PM
Sat, Aug 27
75 °FPassing clouds.9 mph83%29.89 "Hg4 mi
11:00 PM75 °FPassing clouds.10 mph89%29.89 "Hg4 mi
10:30 PM75 °FPassing clouds.10 mph89%29.86 "Hg4 mi
10:00 PM77 °FPassing clouds.9 mph79%29.89 "Hg4 mi
9:30 PM77 °FPassing clouds.9 mph79%29.86 "Hg4 mi
9:00 PM77 °FPassing clouds.9 mph79%29.86 "Hg4 mi
8:30 PM77 °FPassing clouds.12 mph79%29.83 "Hg4 mi
8:00 PM77 °FPassing clouds.8 mph83%29.83 "Hg4 mi
7:30 PM77 °FPassing clouds.8 mph83%29.80 "Hg4 mi
7:00 PM77 °FScattered clouds.9 mph83%29.80 "Hg4 mi
Weather by CustomWeather, © 2016

See weather overviewHow to use our weather pages